SL-14 DEB, 45356

Orbit data source: Space-Track

SL-14 DEB, 45356 is space debris in LEO originally from a launch on Thu, 15 Aug 1991 UTC launched from the Plesetsk Missile And Space Complex (PKMTR). Debris objects in space refer to the collection of defunct objects orbiting the Earth. Examples of debris include non-operational satellites, rocket bodies, and fragments generated from explosions, collisions, or faulty payload assembly.

Loading next visibility...
Identifier
45356, 1991-056CQ
Orbit
LEO
Country
Flag of CISCIS
Related business
Manufacturer
Unknown
Mission
Spacecraft
Bus & Motor
Unknown
Mass
Unknown
Launch date (UTC)
1991-08-15 (35 years ago)
Launch vehicle
Unknown
Launch site
Plesetsk Missile And Space Complex (PKMTR)
Object type
Payload
Rocket body
Debris
Shape & HBR
Unknown shape, 0.1 m
Radar Cross Section
Medium (>0.1 m² and <1 m²)

Expand to show TLE details & history
Last TLE update: 20 hours ago

TLE from 20 hours ago
0 SL-14 DEB
1 45356U 91056CQ  26174.58738087  .00000338  00000-0  72681-3 0  9991
2 45356  82.6129 122.6565 0041394 315.9663  43.8170 13.26962892305283
Epoch: 2026-06-23T14:05Z
TLE epoch observation values (Epoch: 2026-06-23T14:05:49.707Z)
Latitude
-0.00003°
Longitude
-0.55742°
Altitude
1,138.612 km
Speed
7.294 km/s
True Right ascension
08h 10m 37s
True Declination
0° 00' 00"
Sunlit
Object was in daylight at epoch
Visualization orbit readout
Latitude
Unknown
Longitude
Unknown
Altitude
Unknown
Speed
Unknown
Apparent Right ascension
Unknown
Apparent Declination
Unknown
Sunlit
N/A
Visualization observer readout
Local Sidereal Time
20:46:11
Azimuth
Unknown
Elevation
Unknown
Doppler factor
Unknown
Orbital elements
Apogee altitude
1,186.654 km
Perigee altitude
1,124.284 km
Semi-major axis
7,533.606 km
Eccentricity
0.00414
Inclination
82.6129°
RAAN
122.6565°
Arg. of periapsis
315.9663°
True anomaly
44.14664°
Mean anomaly
43.817°
Eccentric anomaly
43.9817°
Mean motion
3.31924 °/min
Orbital period
108.46 mins
BSTAR
0.00072681
Loading maneuver chart data...
Computing Atmospheric mass density...
Loading historical data...
Loading historical data...
Loading historical data...
Loading historical data...
Loading historical data...
Loading historical data...
Loading historical data...

Documentation

Showing up to 5 results
|